W5CGC Weather Reports


time (UTC)temp
C
wind
direction
speed
KPH
gust
KPH
rain 1hr
cm
rain 24hr
cm
rain mn
cm
humidity
%
barometer
mb
20220525140022 15 100 0.0 6.4 0.08 4.93 0.66 89 1009.5
20220525135516 15 309 1.6 6.4 0.08 4.93 0.66 88 1009.4
20220525135021 15 282 1.6 8.0 0.08 4.93 0.66 88 1009.4
20220525134529 15 0 0.0 8.0 0.08 4.93 0.66 89 1009.2
20220525134016 15 126 0.0 3.2 0.08 4.93 0.66 89 1009.2
20220525133519 15 293 0.0 3.2 0.05 4.90 0.64 88 1009.1
20220525133019 15 131 0.0 8.0 0.03 4.88 0.61 88 1008.9
20220525132516 15 306 0.0 8.0 0.03 4.88 0.61 88 1008.7
20220525132015 15 307 0.0 6.4 0.03 4.88 0.61 88 1008.6
20220525131517 15 107 1.6 6.4 0.03 4.88 0.61 88 1008.4
20220525131019 15 316 1.6 4.8 0.00 4.85 0.58 88 1008.2
20220525130519 15 359 1.6 6.4 0.00 4.85 0.58 88 1008.2
20220525130030 15 279 1.6 6.4 0.00 4.85 0.58 88 1008.1
20220525125517 15 110 1.6 6.4 0.00 4.85 0.58 88 1008.0
20220525125017 15 278 1.6 6.4 0.00 4.85 0.58 88 1007.9
20220525124525 15 243 0.0 4.8 0.00 4.85 0.58 88 1007.8
20220525124017 15 310 1.6 4.8 0.00 4.85 0.58 88 1007.8
20220525123519 15 296 0.0 8.0 0.00 4.85 0.58 88 1007.7
20220525123021 16 306 0.0 8.0 0.00 4.85 0.58 89 1007.6
20220525122517 16 1 0.0 4.8 0.00 4.85 0.58 89 1007.6
20220525122017 16 274 0.0 4.8 0.00 4.85 0.58 89 1007.5
20220525121520 16 312 0.0 4.8 0.00 4.85 0.58 89 1007.5
20220525121017 16 0 0.0 3.2 0.00 4.85 0.58 89 1007.4
20220525120517 16 220 0.0 1.6 0.00 4.85 0.58 89 1007.4
20220525120020 16 0 0.0 0.0 0.00 4.85 0.58 89 1007.3
20220525115518 16 185 0.0 0.0 0.00 4.85 0.58 89 1007.2
20220525115020 16 0 0.0 0.0 0.00 4.85 0.58 89 1007.1
20220525114519 16 0 0.0 0.0 0.00 4.85 0.58 89 1006.9
20220525114018 16 0 0.0 0.0 0.00 4.85 0.58 89 1006.7
20220525113517 16 0 0.0 0.0 0.00 4.85 0.58 89 1006.6
20220525113022 16 0 0.0 0.0 0.00 4.85 0.58 89 1006.6
20220525112518 16 0 0.0 1.6 0.00 4.85 0.58 89 1006.6
20220525112017 16 0 0.0 1.6 0.00 4.85 0.58 89 1006.6
20220525111524 16 0 0.0 0.0 0.00 4.85 0.58 89 1006.5
20220525111018 16 184 0.0 1.6 0.00 4.85 0.58 89 1006.5
20220525110519 16 0 0.0 1.6 0.00 4.85 0.58 89 1006.5
20220525110045 16 165 0.0 1.6 0.00 4.85 0.58 89 1006.4
20220525105520 16 0 0.0 1.6 0.00 4.85 0.58 89 1006.2
20220525105017 16 0 0.0 1.6 0.00 4.85 0.58 89 1006.2
20220525104520 16 0 0.0 1.6 0.03 4.85 0.58 89 1006.1
20220525104018 16 0 0.0 1.6 0.03 4.85 0.58 89 1006.0
20220525103521 16 0 0.0 1.6 0.03 4.85 0.58 89 1006.0
20220525103028 16 0 0.0 1.6 0.03 4.85 0.58 89 1006.0
20220525102518 16 0 0.0 1.6 0.03 4.85 0.58 89 1006.0
20220525102019 16 0 0.0 1.6 0.03 4.85 0.58 89 1005.9
20220525101522 16 0 0.0 1.6 0.03 4.85 0.58 89 1005.9
20220525101020 16 0 0.0 1.6 0.03 4.85 0.58 89 1005.9
20220525100520 16 89 0.0 1.6 0.03 4.85 0.58 89 1005.8
20220525100027 16 0 0.0 1.6 0.03 4.85 0.58 89 1005.7
20220525095516 16 0 0.0 0.0 0.03 4.85 0.58 89 1005.5
20220525095016 16 112 0.0 1.6 0.03 4.85 0.58 89 1005.4
20220525094524 16 0 0.0 1.6 0.00 4.83 0.56 89 1005.3
20220525094015 16 0 0.0 1.6 0.00 4.83 0.56 89 1005.4
20220525093516 16 0 0.0 1.6 0.00 4.83 0.56 89 1005.3
20220525093021 16 0 0.0 1.6 0.00 4.83 0.56 89 1005.3
20220525092519 16 0 0.0 3.2 0.00 4.83 0.56 89 1005.4
20220525092018 16 162 0.0 3.2 0.00 4.83 0.56 89 1005.4
20220525091521 16 115 0.0 3.2 0.00 4.83 0.56 89 1005.6
20220525091018 16 179 0.0 1.6 0.00 4.83 0.56 89 1005.6
20220525090516 16 0 0.0 1.6 0.00 4.83 0.56 89 1006.0
20220525090021 16 181 0.0 0.0 0.00 4.83 0.56 89 1006.0
20220525085517 16 182 0.0 1.6 0.00 4.85 0.56 89 1006.1
20220525085019 16 0 0.0 1.6 0.00 4.85 0.56 89 1006.0
20220525084524 16 165 0.0 1.6 0.00 4.85 0.56 89 1006.4
20220525084023 16 0 0.0 3.2 0.00 4.85 0.56 89 1006.4
20220525083516 16 0 0.0 3.2 0.00 4.85 0.56 89 1006.6
20220525083035 16 159 0.0 3.2 0.00 4.85 0.56 89 1007.0
20220525082516 16 233 0.0 3.2 0.00 4.85 0.56 89 1006.4
20220525082019 16 0 0.0 3.2 0.00 4.85 0.56 89 1005.8
20220525081521 16 184 0.0 6.4 0.00 4.85 0.56 89 1006.4
20220525081016 16 155 0.0 6.4 0.00 4.85 0.56 89 1006.5
20220525080517 16 253 1.6 6.4 0.00 4.85 0.56 89 1005.5
20220525080020 16 293 1.6 11.3 0.00 4.85 0.56 89 1003.8
20220525075516 16 88 1.6 11.3 0.00 4.88 0.56 89 1004.8
20220525075015 16 183 3.2 11.3 0.00 4.88 0.56 89 1006.4
20220525074519 16 90 1.6 6.4 0.00 4.88 0.56 89 1005.6
20220525074016 16 0 0.0 8.0 0.00 4.88 0.56 89 1006.3
20220525073516 16 165 1.6 8.0 0.00 4.88 0.56 89 1007.0
20220525073022 16 0 0.0 4.8 0.00 4.88 0.56 89 1006.0
20220525072515 16 124 0.0 4.8 0.00 4.88 0.56 89 1005.2
20220525072015 16 188 0.0 9.7 0.00 4.88 0.56 89 1005.5
20220525071525 16 216 0.0 9.7 0.00 4.88 0.56 89 1005.0
20220525071016 16 190 1.6 9.7 0.03 4.88 0.56 89 1004.9
20220525070518 16 133 1.6 9.7 0.03 4.88 0.56 89 1004.7
20220525070023 16 72 0.0 6.4 0.05 4.88 0.56 89 1004.2
20220525065515 16 95 0.0 6.4 0.10 4.88 0.56 89 1003.8
20220525065015 16 82 0.0 9.7 0.15 4.88 0.56 89 1004.0
20220525064524 16 41 3.2 9.7 0.20 4.88 0.56 89 1003.6
20220525064020 16 113 3.2 9.7 0.25 4.88 0.56 89 1003.2
20220525063517 16 189 3.2 8.0 0.33 4.88 0.56 89 1003.0
20220525063024 16 121 0.0 4.8 0.38 4.88 0.56 89 1004.9
20220525062516 16 0 0.0 3.2 0.43 4.88 0.56 89 1005.4
20220525062016 16 20 0.0 3.2 0.46 4.88 0.56 89 1005.6
20220525061533 16 0 0.0 0.0 0.48 4.88 0.56 89 1006.3
20220525061020 16 0 0.0 0.0 0.51 4.85 0.53 89 1007.0
20220525060518 16 0 0.0 0.0 0.51 4.85 0.53 89 1007.2
20220525060018 16 0 0.0 0.0 0.51 4.83 0.51 89 1007.5
20220525055518 16 0 0.0 0.0 0.46 4.78 0.46 88 1007.8
20220525055017 16 0 0.0 0.0 0.41 4.72 0.41 88 1008.0
20220525054517 16 0 0.0 0.0 0.36 4.67 0.36 88 1008.3
20220525054020 16 0 0.0 0.0 0.28 4.60 0.28 88 1008.4
20220525053515 16 0 0.0 1.6 0.23 4.55 0.23 88 1008.6
20220525053022 16 0 0.0 1.6 0.15 4.47 0.15 88 1008.7
20220525052517 16 0 0.0 1.6 0.13 4.45 0.13 88 1008.8
20220525052017 16 0 0.0 1.6 0.13 4.42 0.10 88 1008.6
20220525051523 16 0 0.0 1.6 0.08 4.37 0.05 88 1008.5
20220525051019 16 0 0.0 0.0 0.08 4.34 0.03 88 1008.5
20220525050518 16 0 0.0 0.0 0.10 4.34 0.03 88 1008.5
20220525050038 16 0 0.0 0.0 0.10 4.32 0.00 88 1008.5
20220525045518 16 0 0.0 0.0 0.13 4.34 4.32 88 1008.5
20220525045018 16 0 0.0 0.0 0.18 4.34 4.32 88 1008.5
20220525044534 16 0 0.0 1.6 0.25 4.34 4.32 88 1008.5
20220525044020 16 0 0.0 1.6 0.33 4.34 4.32 88 1008.6
20220525043520 16 0 0.0 0.0 0.38 4.34 4.32 88 1008.2
20220525043032 16 0 0.0 1.6 0.43 4.34 4.32 89 1008.0
20220525042517 16 0 0.0 1.6 0.46 4.34 4.32 89 1007.7
20220525042017 16 89 0.0 1.6 0.46 4.32 4.29 88 1007.5
20220525041525 16 0 0.0 0.0 0.46 4.32 4.29 88 1007.2
20220525041018 16 0 0.0 0.0 0.46 4.29 4.27 88 1007.7
20220525040518 16 0 0.0 0.0 0.43 4.27 4.24 88 1008.0
20220525040032 16 0 0.0 0.0 0.43 4.24 4.22 88 1008.1
20220525035518 16 0 0.0 0.0 0.46 4.22 4.19 88 1008.1
20220525035022 16 0 0.0 0.0 0.43 4.17 4.14 88 1008.1
20220525034526 16 0 0.0 0.0 0.38 4.09 4.06 88 1008.2
20220525034017 16 0 0.0 0.0 0.30 4.01 3.99 88 1008.2
20220525033520 16 0 0.0 1.6 0.28 3.96 3.94 88 1008.3
20220525033032 16 0 0.0 1.6 0.25 3.91 3.89 88 1008.3
20220525032521 16 0 0.0 1.6 0.25 3.89 3.86 88 1008.4
20220525032018 16 0 0.0 1.6 0.23 3.86 3.84 88 1008.3
20220525031525 16 0 0.0 1.6 0.23 3.86 3.84 88 1008.4
20220525031017 16 0 0.0 1.6 0.23 3.84 3.81 88 1008.2
20220525030517 16 0 0.0 3.2 0.23 3.84 3.81 88 1008.0
20220525030023 16 0 0.0 3.2 0.23 3.78 3.76 88 1008.4
20220525025518 16 67 0.0 3.2 0.28 3.86 3.73 88 1008.6
20220525025018 16 0 0.0 1.6 0.38 3.84 3.71 88 1008.6
20220525024522 16 59 0.0 1.6 0.71 3.81 3.68 88 1008.5
20220525024017 16 0 0.0 1.6 0.89 3.78 3.66 88 1008.4
20220525023518 16 0 0.0 0.0 0.94 3.78 3.66 88 1008.5
20220525023025 16 0 0.0 0.0 0.94 3.76 3.63 88 1008.3
20220525022517 16 0 0.0 1.6 0.94 3.73 3.61 88 1008.6
20220525022017 16 0 0.0 1.6 0.94 3.73 3.61 88 1008.8
20220525021525 16 0 0.0 1.6 0.94 3.73 3.61 88 1008.8
20220525021023 16 0 0.0 3.2 0.97 3.71 3.58 87 1008.7
20220525020520 16 0 0.0 6.4 0.94 3.68 3.56 87 1008.4
20220525020030 16 47 0.0 6.4 0.91 3.66 3.53 87 1008.5
20220525015519 16 45 3.2 6.4 0.84 3.58 3.45 87 1008.9
20220525015019 16 342 1.6 14.5 0.69 3.43 3.30 86 1010.0
20220525014523 16 92 4.8 14.5 0.30 3.05 2.92 87 1010.2
20220525014019 17 109 0.0 3.2 0.13 2.87 2.74 88 1008.9
20220525013518 17 292 0.0 4.8 0.18 2.82 2.67 87 1008.7
20220525013024 17 98 0.0 4.8 0.36 2.82 2.67 87 1007.8
20220525012517 17 305 1.6 11.3 0.41 2.79 2.64 87 1007.0
20220525012017 17 82 1.6 11.3 0.51 2.79 2.64 87 1006.7
20220525011529 17 353 1.6 8.0 0.51 2.79 2.64 87 1006.4
20220525011018 17 210 1.6 11.3 0.46 2.74 2.62 87 1005.9
20220525010521 17 0 1.6 11.3 0.46 2.74 2.62 87 1005.6
20220525010032 17 0 3.2 11.3 0.51 2.74 2.62 87 1005.5
20220525005520 17 327 1.6 6.4 0.61 2.74 2.62 87 1005.5
20220525005017 17 0 0.0 6.4 0.66 2.74 2.62 86 1005.8
20220525004527 17 348 1.6 4.8 0.74 2.74 2.62 86 1005.8
20220525004020 17 328 0.0 6.4 1.09 2.74 2.62 86 1006.0
20220525003518 17 296 0.0 6.4 1.07 2.62 2.49 85 1006.0
20220525003032 17 67 1.6 9.7 0.91 2.46 2.34 85 1005.7
20220525002517 17 60 0.0 9.7 0.81 2.36 2.24 84 1005.3
20220525002023 17 270 1.6 8.0 0.74 2.29 2.16 84 1005.4
20220525001523 17 41 1.6 8.0 0.74 2.29 2.16 84 1005.2
20220525001018 17 131 1.6 9.7 0.74 2.29 2.16 83 1005.3
20220525000519 17 342 1.6 9.7 0.74 2.29 2.16 83 1005.4
20220525000023 17 330 3.2 9.7 0.66 2.21 2.08 82 1005.5
20220524235518 17 126 1.6 14.5 0.58 2.13 2.01 82 1005.4
20220524235020 17 333 1.6 14.5 0.53 2.08 1.96 81 1005.5
20220524234541 18 59 3.2 14.5 0.43 1.98 1.85 80 1005.3
20220524234017 18 163 1.6 11.3 0.05 1.60 1.47 79 1005.9
20220524233517 19 58 3.2 9.7 0.00 1.55 1.42 77 1005.9
20220524233020 20 63 3.2 16.1 0.00 1.55 1.42 76 1005.7
20220524232519 21 56 3.2 16.1 0.00 1.55 1.42 75 1006.1
20220524232019 21 207 4.8 16.1 0.00 1.55 1.42 76 1006.0
20220524231520 21 285 1.6 4.8 0.00 1.55 1.42 76 1005.3
20220524231019 21 72 1.6 4.8 0.00 1.55 1.42 76 1004.6
20220524230521 21 59 1.6 4.8 0.00 1.55 1.42 76 1004.5
20220524230027 21 106 1.6 4.8 0.00 1.55 1.42 76 1004.6
20220524225519 21 73 0.0 4.8 0.00 1.55 1.42 76 1004.5
20220524225018 21 86 0.0 6.4 0.00 1.55 1.42 76 1004.6
20220524224523 21 292 1.6 8.0 0.00 1.55 1.42 76 1004.5
20220524224020 21 81 1.6 8.0 0.00 1.55 1.42 76 1004.4
20220524223521 21 75 0.0 6.4 0.00 1.55 1.42 77 1004.5
20220524223021 21 15 3.2 6.4 0.00 1.55 1.42 76 1004.4
20220524222522 21 127 1.6 8.0 0.00 1.55 1.42 77 1004.2
20220524222019 21 0 1.6 8.0 0.00 1.55 1.42 77 1004.1
20220524221525 21 88 3.2 12.9 0.00 1.55 1.42 76 1004.2
20220524221019 21 65 1.6 12.9 0.00 1.55 1.42 77 1004.3
20220524220521 21 89 1.6 4.8 0.00 1.55 1.42 78 1004.5
20220524220021 21 68 1.6 4.8 0.00 1.55 1.42 78 1004.8
20220524215517 21 59 1.6 3.2 0.00 1.55 1.42 78 1005.1
20220524215020 21 39 0.0 4.8 0.00 1.55 1.42 78 1005.2
20220524214523 21 69 0.0 4.8 0.00 1.55 1.42 78 1005.5
20220524214020 21 349 1.6 6.4 0.00 1.55 1.42 78 1005.5
20220524213520 21 0 0.0 6.4 0.00 1.55 1.42 79 1005.5
20220524213024 21 330 1.6 6.4 0.00 1.55 1.42 78 1005.7
20220524212517 21 347 0.0 6.4 0.00 1.55 1.42 79 1005.8
20220524212018 21 65 1.6 6.4 0.00 1.55 1.42 79 1005.9
20220524211532 21 28 1.6 6.4 0.00 1.55 1.42 79 1005.9
20220524211016 20 37 0.0 6.4 0.00 1.55 1.42 80 1006.1
20220524210520 20 290 1.6 4.8 0.00 1.55 1.42 81 1006.1
20220524210027 20 65 1.6 3.2 0.00 1.55 1.42 82 1006.1
20220524205521 20 340 1.6 6.4 0.00 1.55 1.42 82 1006.2
20220524205018 20 41 0.0 6.4 0.00 1.55 1.42 83 1006.5
20220524204528 20 22 1.6 6.4 0.00 1.55 1.42 83 1006.6
20220524204017 19 79 1.6 6.4 0.00 1.55 1.42 84 1006.7
20220524203519 19 20 1.6 9.7 0.03 1.55 1.42 84 1006.7
20220524203022 19 0 1.6 9.7 0.03 1.55 1.42 84 1006.9
20220524202518 19 349 1.6 8.0 0.03 1.55 1.42 85 1007.0
20220524202022 19 81 0.0 6.4 0.03 1.55 1.42 85 1007.1
20220524201529 19 60 1.6 4.8 0.03 1.55 1.42 85 1007.3
20220524201018 19 271 0.0 3.2 0.03 1.55 1.42 87 1007.2
20220524200518 19 0 0.0 6.4 0.03 1.55 1.42 87 1007.2
20220524200022 18 0 0.0 6.4 0.03 1.55 1.42 87 1007.5
20220524195516 19 314 0.0 8.0 0.03 1.55 1.42 87 1007.3
20220524195016 18 122 0.0 8.0 0.03 1.55 1.42 87 1007.3
20220524194521 18 57 1.6 6.4 0.03 1.55 1.42 87 1007.4
20220524194026 18 269 1.6 4.8 0.00 1.52 1.40 87 1007.5
20220524193519 19 83 1.6 4.8 0.00 1.52 1.40 87 1007.7
20220524193024 18 102 1.6 4.8 0.00 1.52 1.40 87 1007.7
20220524192519 18 96 1.6 4.8 0.00 1.52 1.40 87 1007.9
20220524192021 18 76 0.0 4.8 0.00 1.52 1.40 87 1007.9
20220524191537 18 86 1.6 4.8 0.00 1.52 1.40 87 1008.0
20220524191020 18 103 0.0 4.8 0.00 1.52 1.40 87 1008.3
20220524190521 18 49 0.0 3.2 0.00 1.52 1.40 87 1008.3
20220524190025 18 52 0.0 3.2 0.00 1.52 1.40 87 1008.2
20220524185520 18 308 0.0 8.0 0.00 1.52 1.40 87 1008.5
20220524185018 18 0 0.0 8.0 0.00 1.52 1.40 87 1008.6
20220524184524 18 6 0.0 8.0 0.00 1.52 1.40 87 1008.6
20220524184020 18 11 1.6 8.0 0.03 1.52 1.40 87 1008.7
20220524183519 18 14 0.0 6.4 0.10 1.52 1.40 88 1008.7
20220524183037 18 241 0.0 6.4 0.13 1.52 1.40 88 1008.6
20220524182521 18 264 0.0 6.4 0.18 1.52 1.40 87 1008.7
20220524182023 18 15 0.0 6.4 0.20 1.52 1.40 87 1008.7
20220524181525 18 232 1.6 6.4 0.20 1.52 1.40 87 1008.7
20220524181019 18 220 0.0 3.2 0.28 1.52 1.40 87 1008.7
20220524180518 18 81 0.0 4.8 0.33 1.52 1.40 87 1008.6
20220524180037 18 68 0.0 4.8 0.56 1.52 1.40 87 1008.7
20220524175521 18 323 0.0 4.8 0.81 1.52 1.40 88 1008.7
20220524175019 17 347 0.0 8.0 0.89 1.52 1.40 86 1008.8
20220524174522 17 44 0.0 8.0 1.12 1.52 1.40 86 1009.0
20220524174020 17 51 0.0 4.8 1.22 1.47 1.32 86 1009.1
20220524173519 17 0 0.0 6.4 1.22 1.42 1.30 85 1009.2
20220524173024 17 346 0.0 6.4 1.22 1.40 1.27 83 1009.2
20220524172520 17 340 0.0 6.4 1.17 1.32 1.22 80 1009.5
20220524172020 17 257 1.6 9.7 1.14 1.32 1.19 79 1009.3
20220524171524 17 236 1.6 9.7 1.14 1.32 1.19 77 1009.3
20220524171018 17 335 1.6 9.7 1.07 1.24 1.12 75 1009.3
20220524170519 17 66 0.0 8.0 0.99 1.17 1.04 74 1009.2
20220524170023 17 53 3.2 9.7 0.74 0.91 0.79 73 1009.2
20220524165523 18 63 1.6 12.9 0.51 0.69 0.56 73 1009.2
20220524165020 18 94 1.6 12.9 0.43 0.61 0.48 72 1009.0
20220524164523 18 86 3.2 8.0 0.18 0.36 0.23 70 1009.2
20220524164017 19 122 3.2 9.7 0.08 0.25 0.13 69 1009.1
20220524163519 20 144 3.2 9.7 0.03 0.20 0.08 67 1009.1
20220524163025 21 307 3.2 8.0 0.00 0.18 0.05 66 1009.1
20220524162519 22 250 1.6 6.4 0.00 0.18 0.05 70 1008.8
20220524162023 22 180 1.6 6.4 0.00 0.18 0.05 70 1008.7
20220524161530 22 226 1.6 8.0 0.00 0.18 0.05 70 1008.5
20220524161016 22 200 1.6 11.3 0.00 0.18 0.05 70 1008.6
20220524160516 22 150 3.2 12.9 0.00 0.18 0.05 70 1008.5
20220524160025 22 219 3.2 12.9 0.00 0.18 0.05 70 1008.6
20220524155520 21 175 1.6 14.5 0.00 0.18 0.05 70 1008.9
20220524155018 21 174 1.6 14.5 0.00 0.18 0.05 70 1009.0
20220524154521 21 162 1.6 8.0 0.00 0.18 0.05 70 1009.1
20220524154019 21 113 0.0 8.0 0.00 0.18 0.05 70 1009.1
20220524153518 21 150 1.6 9.7 0.00 0.18 0.05 70 1009.1
20220524153023 21 148 3.2 12.9 0.00 0.18 0.05 70 1009.1
20220524152515 21 136 3.2 12.9 0.00 0.18 0.05 70 1009.0
20220524152018 21 205 3.2 11.3 0.00 0.18 0.05 70 1009.1
20220524151523 21 120 3.2 11.3 0.00 0.18 0.05 69 1009.0
20220524151020 22 138 1.6 8.0 0.00 0.18 0.05 69 1009.1
20220524150524 22 176 3.2 11.3 0.00 0.18 0.05 69 1009.0
20220524150029 22 153 1.6 12.9 0.00 0.18 0.05 70 1009.0
20220524145521 21 52 1.6 16.1 0.00 0.18 0.05 70 1008.9
20220524145016 21 174 6.4 16.1 0.00 0.18 0.05 70 1008.8
20220524144523 21 99 3.2 11.3 0.00 0.18 0.05 70 1008.7
20220524144015 21 172 1.6 14.5 0.00 0.18 0.05 71 1008.7
20220524143529 21 121 0.0 14.5 0.00 0.18 0.05 72 1008.5
20220524143021 21 179 1.6 14.5 0.00 0.18 0.05 72 1008.5
20220524142518 21 72 1.6 8.0 0.00 0.18 0.05 72 1008.3
20220524142019 21 79 0.0 8.0 0.00 0.18 0.05 72 1008.3
20220524141525 21 150 1.6 8.0 0.00 0.18 0.05 72 1008.4
20220524141021 20 0 1.6 6.4 0.00 0.18 0.05 72 1008.5
20220524140517 20 160 0.0 6.4 0.00 0.18 0.05 72 1008.6